Flag for U.S.A. Weather past 2 weeks in Los Angeles, California, U.S.A.

Now
68 °F

Broken clouds.


Feels Like: 68 °F
Forecast: 56 / 71 °F
Wind: No wind

Location: Los Angeles / USC Campus Downtown


UV Index: 0 (Low)

Visibility: 9 mi


Pressure: 29.90 "Hg

Humidity: 59%

Dew point: 53 °F

Location of Los AngelesLocation

Historic Weather in Los Angeles

°F

Los Angeles temperature yesterday

Maximum temperature yesterday: 71 °F (at 12:47 PM)
Minimum temperature yesterday: 58 °F (at 12:47 AM)
Average temperature yesterday: 62 °F

Past Weeks' High & Low Weather Summary

 TemperatureHumidityPressure
High88 °F (Apr 8, 1:47 PM)96% (Apr 10, 6:47 AM)30.14 "Hg (Apr 10, 6:47 AM)
Low49 °F (Apr 3, 4:47 AM)15% (Apr 9, 12:47 PM)29.78 "Hg (Apr 16, 4:47 PM)
Average63 °F61%29.97 "Hg
* Reported Apr 2 10:47 AM — Apr 17 10:47 AM, Los Angeles, Weather by CustomWeather, © 2014

Note: Actual official high and low records may vary slightly from our data, if they occured in-between our weather recording intervals... More about our weather records

Advertising

Historic Weather Conditions — Data for Previous 24 hours

 ConditionsComfort  
Time TempWeatherWind HumidityBarometerVisibility
10:47 AM
Apr 17
64 °FOvercast.3 mph68%29.90 "Hg8 mi
9:47 AM64 °FOvercast.No wind68%29.90 "Hg7 mi
8:47 AM62 °FOvercast.6 mph70%29.89 "Hg7 mi
7:47 AM61 °FOvercast.3 mph72%29.88 "Hg7 mi
6:47 AM60 °FOvercast.No wind75%29.87 "Hg8 mi
5:47 AM60 °FOvercast.No wind75%29.85 "Hg9 mi
4:55 AM59 °FOvercast.No wind78%29.86 "Hg9 mi
4:47 AM59 °FOvercast.No wind81%29.85 "Hg9 mi
3:47 AM59 °FOvercast.No wind81%29.85 "Hg8 mi
2:47 AM60 °FOvercast.No wind78%29.84 "Hg9 mi
1:47 AM60 °FOvercast.No wind78%29.85 "Hg8 mi
1:02 AM59 °FPassing clouds.3 mph81%29.87 "Hg9 mi
11:47 PM
Apr 16
60 °FClear.3 mph78%29.86 "Hg6 mi
10:47 PM59 °FClear.No wind81%29.85 "Hg6 mi
9:47 PM60 °FClear.No wind78%29.85 "Hg6 mi
8:47 PM60 °FClear.3 mph78%29.83 "Hg7 mi
7:47 PM61 °FSunny.No wind75%29.81 "Hg7 mi
6:47 PM63 °FSunny.6 mph70%29.79 "Hg8 mi
5:47 PM66 °FSunny.6 mph63%29.78 "Hg10 mi
4:47 PM67 °FSunny.3 mph61%29.78 "Hg10 mi
3:47 PM67 °FSunny.5 mph61%29.80 "Hg10 mi
2:47 PM68 °FSunny.7 mph59%29.80 "Hg10 mi
1:47 PM69 °FSunny.6 mph57%29.80 "Hg10 mi
12:47 PM71 °FSunny.3 mph53%29.81 "Hg10 mi
Weather by CustomWeather, © 2014

See weather overview